Torna al catalogo

STARLINK-4202

AttivoComunicazioniVLEO
NORAD 52848·PAYLOAD·🇺🇸 United States

Lanciato Jun 17, 2022 da Cape Canaveral Space Force Station

Loading…

Prossimi Passaggi (prossime 24 ore)

TLE

AggiornatoSource: CelesTrak SupGP

Epoca: Sep 15, 2026, 01:39 UTC

1 52848C 22062U   26258.06923611 -.00218820  00000+0 -62658-2 0  2589
2 52848  53.1576 255.3972 0001375  97.5543 145.1360 15.35481648    14

Traccia STARLINK-4202 in tempo reale con AllMySat

Download on the App Store